Theta_e
345 346 345 344 346 347 347 348 351 352 353 355 346 353 352 351 352 348 354 352 351 354 356 356 354 359 357 349 345 350 353 349 339 340 343 341 343 344 345 341 346 349 344
344 345 346 344 345 347 349 351 351 352 353 354 353 354 356 356 354 356 351 349 354 355 356 353 342 357 360 354 353 339 347 350 347 343 339 341 345 338 336 335 334 336 332
343 344 345 346 346 346 347 349 351 351 345 352 352 354 352 353 350 345 350 353 355 354 356 355 356 354 358 356 356 348 344 346 350 348 345 340 340 338 337 334 334 331 334
342 343 344 345 345 347 348 348 347 347 348 342 353 352 351 347 352 353 355 357 354 354 354 356 357 356 353 356 357 353 339 345 350 349 349 345 344 339 338 336 333 331 332
342 343 344 344 344 344 347 348 350 350 350 346 340 350 349 351 350 350 349 353 349 348 354 355 355 356 358 359 355 356 347 343 346 351 349 346 344 341 339 336 334 333 334
345 343 342 344 344 344 345 347 350 350 348 353 345 343 350 347 348 352 349 352 352 352 356 355 356 356 352 356 358 356 353 347 344 341 350 348 345 344 340 338 334 330 335
348 346 343 343 344 343 343 346 348 348 349 348 350 340 336 340 342 349 352 349 350 351 356 358 357 355 356 355 355 355 354 352 348 345 342 347 346 344 341 339 333 331 334
350 348 348 345 345 344 344 345 348 347 349 345 346 344 337 332 331 336 344 347 347 351 353 353 355 349 354 356 356 354 352 356 348 345 347 345 346 345 343 339 333 330 328
351 350 350 347 346 345 347 347 346 346 349 340 343 343 339 334 346 348 349 349 345 347 349 348 351 352 353 354 355 355 355 356 350 348 352 352 346 346 345 337 332 329 328
344 351 349 349 348 348 348 347 348 347 349 339 340 341 339 334 330 347 348 349 351 349 348 349 346 351 347 347 355 355 350 355 353 348 349 344 347 347 344 336 330 329 329
344 344 350 345 346 348 348 350 350 351 352 351 354 353 349 341 337 331 335 337 332 331 331 333 332 339 340 343 341 346 350 350 349 348 344 345 346 346 344 333 332 330 329
346 346 349 351 351 351 352 350 349 352 352 353 355 355 355 355 351 341 341 347 349 346 343 345 348 351 351 350 351 351 345 351 354 354 349 345 346 347 345 334 333 332 333
351 350 350 350 351 353 353 353 353 353 353 354 355 356 355 356 355 355 356 356 357 358 356 357 358 360 360 360 358 357 357 349 350 352 351 347 347 349 345 338 325 329 331
354 354 354 350 352 351 350 351 350 351 352 355 355 355 356 357 358 357 356 358 358 358 358 357 359 360 361 361 360 360 358 354 356 354 352 349 350 347 345 339 333 332 332
356 358 357 358 357 357 356 354 356 356 352 352 353 356 356 357 358 359 356 356 356 355 354 361 362 359 359 359 356 358 355 356 356 354 351 348 348 347 345 335 334 322 330
359 357 356 357 357 356 356 356 356 355 354 355 353 353 353 352 353 352 346 344 351 353 350 352 352 347 348 354 353 355 351 351 353 351 350 343 347 347 345 337 327 316 320
356 355 354 356 357 355 356 353 351 350 349 350 349 348 348 347 346 344 344 344 340 347 348 347 346 352 355 346 347 351 349 353 351 351 351 342 343 345 341 338 325 316 318
354 352 352 351 352 351 349 349 347 344 346 347 340 340 342 342 340 337 339 341 344 349 350 352 354 352 353 350 346 349 349 350 350 349 350 341 345 343 342 341 329 317 318
351 349 349 349 350 348 348 347 347 345 345 344 347 348 348 346 347 346 346 348 349 350 354 353 353 355 354 345 348 350 347 344 352 354 346 343 342 344 342 340 330 319 317
348 347 349 349 347 345 345 346 345 345 344 343 339 345 346 346 346 347 349 349 350 351 352 355 352 354 353 346 344 344 344 348 351 353 345 342 344 341 342 340 328 320 317
347 347 345 344 344 344 342 340 338 338 338 339 337 334 331 341 342 342 345 346 348 351 353 354 355 355 351 348 345 343 343 344 346 348 346 343 341 338 337 339 328 322 317
346 344 342 341 339 337 336 335 334 331 326 328 330 334 335 334 321 320 326 337 346 349 351 353 353 353 353 351 343 342 343 345 342 345 342 343 339 338 335 334 329 321 319
342 341 339 337 336 336 335 331 319 316 317 316 316 322 323 326 335 320 322 323 333 339 346 348 351 353 351 353 350 346 343 347 346 344 343 343 339 340 338 330 330 321 324
340 338 336 336 334 332 326 319 317 322 328 323 318 318 327 328 334 328 321 331 332 337 341 344 346 349 347 351 351 350 351 347 348 341 342 340 342 342 337 330 334 323 329
338 336 334 333 333 330 329 323 319 327 329 330 329 328 329 329 332 332 330 334 334 333 336 340 344 345 345 346 345 344 345 346 347 346 341 341 342 341 336 337 338 329 331
335 333 333 330 331 329 327 326 327 331 331 330 328 327 328 328 330 331 331 331 330 331 334 337 341 343 344 344 343 343 341 344 347 346 345 343 343 343 341 340 340 334 331
Wind_Speed
18 17 17 19 18 18 20 18 16 12 12 10 8 2 5 7 2 4 4 4 5 2 6 8 10 11 8 13 10 4 4 8 13 11 3 3 6 3 4 1 3 3 5
20 19 19 20 20 19 18 19 17 15 14 11 10 10 1 1 8 4 6 1 1 3 5 7 4 6 7 10 13 12 8 9 14 16 9 6 6 7 6 8 7 7 10
23 23 21 20 20 21 20 19 19 18 16 14 10 11 11 3 1 6 8 4 3 2 3 5 2 7 10 4 7 11 8 6 10 11 9 6 5 11 8 8 10 11 9
23 28 25 22 21 22 18 18 17 19 16 16 13 8 7 8 6 3 4 2 2 7 2 4 3 7 1 4 7 10 9 7 5 7 10 8 8 4 7 13 13 9 11
24 29 29 27 22 21 23 20 19 18 17 14 18 14 16 11 7 5 8 9 12 12 1 7 7 7 6 9 9 10 7 5 4 2 6 5 7 4 10 13 11 5 12
28 28 30 29 24 22 22 23 20 18 18 20 17 19 16 15 14 10 14 8 12 15 9 9 7 8 9 8 8 14 10 7 7 7 3 9 3 8 8 10 11 11 9
30 27 28 34 27 24 24 23 24 20 20 22 22 18 21 20 18 18 12 11 8 7 4 7 8 4 8 11 12 15 14 10 9 10 5 7 3 9 8 9 8 10 7
11 30 30 31 30 26 24 21 23 21 19 21 20 18 17 18 19 20 20 12 13 12 8 4 8 12 9 9 12 14 15 12 12 14 12 8 3 10 10 10 6 12 10
9 7 2 26 22 26 24 21 22 22 19 19 19 18 17 15 13 11 13 13 14 17 13 14 14 8 11 8 10 13 16 14 14 12 12 14 9 11 13 6 3 10 11
9 10 16 4 16 12 21 22 25 26 21 17 17 17 16 14 14 20 19 17 17 17 18 19 17 16 13 11 12 14 13 17 15 14 11 17 12 10 11 8 3 9 10
9 5 12 15 14 28 23 26 27 25 21 18 18 17 14 11 11 13 18 17 14 15 14 15 14 14 14 14 13 17 18 18 18 13 14 16 14 10 10 8 3 7 9
8 8 4 10 14 17 20 23 26 28 26 20 22 18 14 11 11 10 11 11 13 12 12 12 14 15 17 18 17 17 16 18 17 15 17 15 15 10 10 9 6 5 4
9 7 6 8 9 7 11 19 16 14 24 21 21 18 17 16 15 13 11 11 13 15 15 15 18 20 21 22 20 20 18 15 16 17 16 14 13 10 8 8 5 2 4
10 10 8 9 9 6 8 7 13 8 17 19 17 15 14 12 11 9 10 11 13 14 15 17 20 22 23 23 23 20 18 14 15 14 14 13 12 11 5 5 6 4 3
13 12 14 11 10 7 3 4 9 12 13 17 17 17 17 14 13 12 9 13 15 18 18 17 18 19 19 21 19 18 18 14 16 14 16 11 12 10 6 4 3 7 3
17 14 13 10 6 8 10 11 9 12 13 13 16 17 18 14 12 14 15 22 20 17 21 22 22 23 20 17 16 17 17 15 18 15 15 14 14 11 7 3 2 4 1
17 15 13 13 14 16 16 14 10 12 11 10 11 13 13 13 13 19 24 23 26 26 27 29 22 16 18 16 17 19 18 16 21 19 16 13 12 7 6 2 2 2 1
20 17 14 13 10 11 10 9 6 4 2 3 6 8 9 11 14 18 22 23 23 26 26 23 17 17 19 15 17 18 20 19 20 22 20 13 6 5 5 2 4 4 5
23 21 16 13 12 10 9 6 7 5 4 1 2 6 5 7 9 11 13 13 17 19 19 19 18 16 20 16 14 12 12 14 16 22 18 11 7 5 7 3 0 5 4
23 25 18 17 13 8 8 8 8 5 3 1 1 1 2 3 7 8 8 10 14 19 19 17 12 14 18 12 7 12 12 10 15 18 18 11 8 4 7 6 3 2 5
20 18 16 15 12 11 10 8 6 6 4 3 1 1 2 3 6 7 7 9 10 13 14 11 11 14 12 11 16 16 10 9 14 15 15 12 11 7 9 8 4 2 5
23 20 21 19 16 13 12 10 6 4 3 2 2 0 2 5 6 6 8 9 9 15 12 11 12 8 10 10 11 8 5 7 10 12 9 13 13 8 13 13 8 3 3
27 26 25 19 14 12 9 7 5 3 2 0 1 2 3 6 10 12 10 10 12 13 14 12 12 8 6 12 11 9 9 16 6 7 11 13 13 12 19 15 9 5 5
31 24 23 18 12 9 8 6 5 4 2 3 3 4 7 8 13 14 12 11 12 13 15 14 10 8 11 7 6 8 14 15 10 7 11 11 13 18 20 18 11 9 10
28 30 25 17 12 9 8 6 6 6 5 6 8 6 5 9 7 9 13 12 14 14 15 14 13 14 15 20 21 18 14 12 11 7 13 15 17 20 21 20 14 12 13
26 22 17 14 12 9 7 6 7 5 5 1 1 4 5 6 9 10 9 13 15 13 14 12 12 12 14 17 19 20 13 11 10 12 14 17 18 19 20 21 18 16 14
Wind_Direction
175 174 174 168 172 177 178 176 181 193 198 185 158 168 238 179 118 250 287 87 8 328 3 13 44 29 4 20 29 75 58 324 6 3 35 249 273 14 242 296 327 286 325
174 174 178 173 179 184 189 188 195 207 205 195 214 264 158 7 122 95 353 212 24 354 9 340 357 24 332 15 8 24 45 16 357 9 12 14 157 21 264 274 277 277 330
174 172 183 185 184 192 198 206 204 212 213 185 224 238 233 225 18 258 286 218 152 281 300 312 359 302 338 349 337 356 17 43 354 359 25 0 354 13 340 323 255 281 229
180 173 181 190 195 195 203 210 221 210 227 202 192 238 232 221 257 255 186 172 263 303 259 264 268 298 304 304 334 321 8 11 27 353 343 353 338 332 326 333 297 308 227
185 181 183 186 198 202 203 209 225 222 209 226 211 212 230 216 254 252 281 260 264 278 278 252 287 282 314 305 314 312 331 357 335 336 320 318 346 329 318 321 334 256 239
194 193 186 186 190 201 202 207 216 232 221 221 232 215 212 232 213 237 238 260 276 282 263 213 255 287 302 302 311 302 306 333 350 347 338 305 344 294 308 324 323 327 235
195 185 186 182 185 196 201 202 211 230 234 222 232 231 224 232 227 232 233 245 262 312 235 243 275 289 293 312 309 301 310 297 322 323 322 291 300 298 321 303 316 315 216
174 194 188 183 186 189 195 198 211 230 231 225 225 236 238 235 236 234 238 237 245 250 250 262 281 295 281 290 288 290 304 286 311 316 322 332 296 303 316 315 330 312 319
70 170 216 185 199 186 192 197 209 226 232 219 223 231 238 237 227 239 257 257 243 251 268 270 274 296 270 260 282 287 293 290 295 307 313 315 322 284 316 324 316 302 308
163 156 188 175 161 199 198 198 210 222 225 211 217 225 234 240 231 224 230 234 233 238 240 258 267 261 272 269 254 270 282 276 291 313 315 311 310 293 319 316 332 303 309
161 132 168 197 205 191 201 203 200 211 220 211 217 219 230 233 243 241 239 253 257 254 260 263 271 272 271 270 269 259 262 279 286 297 294 308 318 315 319 337 279 308 302
182 197 197 188 198 201 208 203 200 207 213 221 205 224 235 240 250 256 261 262 274 279 277 279 280 282 282 279 275 280 274 258 281 291 291 307 308 297 319 330 334 331 359
149 174 182 185 186 197 162 173 179 181 205 210 204 205 216 228 228 237 257 263 265 272 281 283 286 289 289 289 283 276 283 281 263 269 281 299 288 292 321 323 357 287 291
155 152 151 171 193 204 243 191 184 182 173 189 195 206 216 236 244 261 277 283 279 278 279 281 282 281 283 283 281 277 271 283 269 273 277 293 277 275 309 325 354 329 157
150 150 160 168 190 187 170 189 184 199 195 186 180 184 198 206 214 217 253 272 273 279 280 266 272 281 289 287 289 283 274 266 267 273 273 287 277 274 290 305 333 303 153
130 139 164 165 162 175 177 175 177 193 201 200 207 217 228 231 226 246 244 283 260 261 276 272 276 285 293 290 291 281 271 267 266 266 272 292 296 255 253 246 351 331 16
144 140 147 156 155 161 166 163 164 164 160 181 179 194 220 223 242 252 262 268 277 278 288 283 292 300 293 295 289 284 273 260 262 257 260 275 299 208 222 236 67 23 14
151 154 157 171 157 163 165 153 161 152 166 237 236 250 261 263 265 258 269 280 277 285 282 282 286 282 288 298 287 273 272 268 260 263 257 258 274 229 219 207 95 72 48
165 162 152 155 171 170 164 189 149 141 117 160 204 221 238 281 306 294 290 283 287 289 289 291 274 286 301 310 288 283 278 267 254 245 238 253 274 238 233 242 72 70 69
140 147 144 138 147 164 142 143 159 157 126 351 134 126 293 267 264 280 291 293 302 305 299 295 277 289 302 319 304 296 301 276 257 241 217 239 210 213 220 225 206 95 72
156 167 168 178 176 163 162 147 141 129 113 126 95 75 297 270 292 306 310 317 328 334 324 304 302 297 303 307 323 308 285 255 257 254 230 206 200 260 225 221 192 95 61
150 157 150 150 149 147 152 148 149 150 150 132 143 232 6 339 321 327 327 346 353 342 344 333 322 307 301 296 335 7 355 328 245 220 244 247 243 254 210 204 186 153 97
147 158 159 145 141 146 155 165 160 160 143 204 297 318 2 353 332 346 345 345 338 329 339 336 338 323 319 285 295 302 312 325 298 225 229 237 222 217 209 194 188 169 129
157 158 157 148 141 152 149 150 149 117 79 49 38 34 29 21 342 350 345 351 336 339 338 331 328 323 331 283 286 322 313 317 316 205 200 191 193 203 196 198 199 168 139
153 152 148 141 150 147 132 129 125 100 62 54 37 16 7 8 16 330 348 349 328 335 328 327 320 305 295 297 302 314 313 298 288 238 202 191 189 192 198 208 205 200 166
157 158 145 154 157 144 136 126 120 97 124 78 299 356 42 6 350 358 351 328 327 335 335 326 315 300 296 298 305 308 303 293 280 249 221 211 212 209 210 212 213 208 190